This demonstration page uses our WeatherBlox Daily Observations layout. Learn more.

Left ArrowRight Arrow

41.55636, -103.73856

Hourly Observations for June 25, 2022

Temp ( °F °C ) Dew Point ( °F °C ) Humidity (%) Winds ( mph kmh ) Pressure ( in mb ) Visibility ( mi km ) Precip ( " mm )
12:58 am 00:58 Clear 62 16.7 55 12.6 77 77 Calm 29.86 1011 10 16 0.00 0.00
1:58 am 01:58 Clear 60 15.7 53 11.9 78 78 N 8 13 29.90 1013 10 16 0.00 0.00
2:58 am 02:58 Cloudy 63 17.1 55 13 77 77 N 14 22 29.97 1015 10 16 0.00 0.00
3:58 am 03:58 Cloudy 58 14.4 52 11 80 80 N 22 35 30.00 1016 10 16 0.00 0.00
4:58 am 04:58 Cloudy 56 13.5 49 9.3 76 76 N 21 33 30.07 1018 10 16 0.00 0.00
5:58 am 05:58 Cloudy 54 12.2 47 8.1 76 76 N 13 20 30.12 1020 10 16 0.00 0.00
6:58 am 06:58 Cloudy 52 10.9 46 7.6 80 80 NNE 13 20 30.18 1022 10 16 0.00 0.00
7:58 am 07:58 Cloudy 51 10.4 48 8.7 89 89 NNW 9 15 30.19 1023 10 16 0.00 0.00
8:58 am 08:58 Cloudy 54 12.4 45 7.3 71 71 NNW 17 28 30.22 1024 10 16 0.00 0.00
9:58 am 09:58 Cloudy 57 13.7 43 6.3 61 61 NNW 13 20 30.24 1024 10 16 0.00 0.00
10:58 am 10:58 Mostly Sunny 63 17.2 40 4.5 43 43 N 14 22 30.21 1023 10 16 0.00 0.00
11:58 am 11:58 Sunny 66 19 37 2.8 34 34 N 15 24 30.22 1023 10 16 0.00 0.00
12:58 pm 12:58 Sunny 69 20.5 36 2.3 30 30 N 12 19 30.20 1023 10 16 0.00 0.00
1:58 pm 13:58 Sunny 71 21.4 37 2.6 29 29 NNE 16 26 30.19 1022 10 16 0.00 0.00
2:58 pm 14:58 Sunny 72 22.3 38 3.4 29 29 NNE 14 22 30.17 1022 10 16 0.00 0.00
3:58 pm 15:58 Sunny 73 22.6 37 2.6 27 27 NNE 8 13 30.16 1022 10 16 0.00 0.00
4:58 pm 16:58 Sunny 74 23.4 38 3.3 27 27 NNE 12 19 30.16 1022 10 16 0.00 0.00
5:58 pm 17:58 Sunny 72 22.4 37 3 28 28 NNW 10 17 30.18 1022 10 16 0.00 0.00
6:58 pm 18:58 Sunny 71 21.7 37 2.9 29 29 N 14 22 30.21 1023 10 16 0.00 0.00
7:58 pm 19:58 Partly Cloudy 66 18.9 36 2.3 33 33 NNE 13 20 30.24 1024 10 16 0.00 0.00
8:58 pm 20:58 Partly Cloudy 63 17.1 35 1.9 36 36 NNE 13 20 30.27 1025 10 16 0.00 0.00
9:58 pm 21:58 Cloudy 62 16.7 33 0.8 34 34 NE 13 20 30.32 1027 10 16 0.00 0.00
10:58 pm 22:58 Mostly Cloudy 59 15 33 0.8 38 38 NE 8 13 30.32 1027 10 16 0.00 0.00
11:58 pm 23:58 Mostly Clear 56 13.4 35 1.7 45 45 NE 12 19 30.34 1027 10 16 0.00 0.00

Powered by AerisWeather